www.pogodaiklimat.ru
ПОГОДА в Дудинце
Время
(UTC), дата
13 7.11
14 7.11
15 7.11
16 7.11
17 7.11
18 7.11
19 7.11
20 7.11
21 7.11
22 7.11
23 7.11
00 8.11
01 8.11
02 8.11
03 8.11
04 8.11
05 8.11
06 8.11
07 8.11
08 8.11
09 8.11
10 8.11
11 8.11
12 8.11
13 8.11
14 8.11
15 8.11
16 8.11
17 8.11
18 8.11
19 8.11
20 8.11
21 8.11
22 8.11
23 8.11
00 9.11
01 9.11
02 9.11
03 9.11
04 9.11
05 9.11
06 9.11
07 9.11
08 9.11
09 9.11
10 9.11
11 9.11
12 9.11
13 9.11
14 9.11
15 9.11
16 9.11
17 9.11
18 9.11
19 9.11
20 9.11
21 9.11
22 9.11
23 9.11
00 10.11
01 10.11
02 10.11
03 10.11
04 10.11
05 10.11
06 10.11
07 10.11
08 10.11
09 10.11
10 10.11
11 10.11
12 10.11
13 10.11
14 10.11
15 10.11
16 10.11
17 10.11
18 10.11
19 10.11
20 10.11
21 10.11
22 10.11
23 10.11
00 11.11
01 11.11
02 11.11
03 11.11
04 11.11
05 11.11
06 11.11
08 11.11
09 11.11
10 11.11
11 11.11
12 11.11
13 11.11
14 11.11
15 11.11
16 11.11
17 11.11
18 11.11
19 11.11
20 11.11
21 11.11
22 11.11
23 11.11
00 12.11
01 12.11
02 12.11
03 12.11
04 12.11
05 12.11
06 12.11
07 12.11
08 12.11
09 12.11
10 12.11
11 12.11
12 12.11
13 12.11
14 12.11
15 12.11
16 12.11
17 12.11
18 12.11
19 12.11
20 12.11
21 12.11
22 12.11
23 12.11
00 13.11
01 13.11
02 13.11
03 13.11
04 13.11
05 13.11
06 13.11
07 13.11
08 13.11
09 13.11
10 13.11
11 13.11
12 13.11
13 13.11
14 13.11
15 13.11
16 13.11
17 13.11
18 13.11
19 13.11
21 13.11
00 14.11
01 14.11
02 14.11
03 14.11
06 14.11
09 14.11
10 14.11
11 14.11
12 14.11
Ветер
(напр.,м/с)
Видим. Явления Облачность Т
(С)
Тd
(С)
f
(%)
Тe
(С)
Тes
(С)
Комфортность P
(гПа)
Po
(гПа)
Тmin
(С)
Tmax
(С)
R
(мм)
R24
(мм)
S
(см)
10 км 10/10 900 м
[Sc]
+10.5 +9.1 91 1008.4 991.6
10 км 10/10 800 м
[Sc]
+10.7 +9.4 92 1008.6 991.8
нст 1 10 км 10/10 800 м
[Sc]
+10.4 +9.3 93 +10 +10 тепло 1008.8 992.0
10 км 10/10 800 м
[Sc]
+9.6 +8.8 95 1009.4 992.5
нст 1 10 км 10/10 900 м
[Sc]
+9.1 +8.5 96 +8 +8 тепло 1009.9 993.0
нст 1 10 км 6/6 800 м
[Sc]
+9.2 +8.7 97 +8 +8 тепло 1010.2 993.3 +10.8 0.9
10 км 8/8 900 м
[Sc]
+9.3 +8.8 97 1010.6 993.7
10 км 8/8 900 м
[Sc]
+9.5 +9.0 97 1011.1 994.2
н/о н/о +8.8 +8.2 96 1011.4 994.4
н/о н/о +8.0 +7.8 99 1011.3 994.3
н/о н/о +8.6 +8.6 100 1011.4 994.4
н/о н/о +9.3 +9.0 98 1011.4 994.5
н/о н/о +9.6 +9.0 96 1011.3 994.4
н/о н/о +9.7 +8.8 94 1011.5 994.6
н/о н/о +9.7 +8.8 94 1011.5 994.6
В 2 н/о н/о +9.7 +8.6 93 +8 +8 тепло 1011.4 994.5
В 2 н/о н/о +9.7 +8.3 91 +8 +8 тепло 1011.3 994.4
нст 1 15 км 8/6 1000 м
[Sc Ac trans]
+9.4 +8.0 91 +9 +9 тепло 1011.3 994.4 +7.7
18 км 6/4 1000 м
[Sc Ac trans]
+9.8 +8.1 89 1011.7 994.8
В 2 18 км 8/8 1000 м
[Sc]
+10.3 +7.7 84 +9 +9 тепло 1012.0 995.1
нст 2 25 км 6/3 1000 м
[Sc Ac trans Ci sp]
+10.6 +8.0 84 +9 +11 тепло 1011.4 994.5
СВ 2 25 км 6/1 1080 м
[Cu hum Ac trans Ci sp]
+11.9 +8.4 79 +11 +13 тепло 1010.8 994.0
В 3 25 км 6/1 1200 м
[Cu hum Ac trans Ci sp]
+13.6 +8.0 69 +13 +14 тепло 1009.4 992.7
нст 2 25 км 8/0
[Ac trans Ci sp]
+13.8 +8.2 69 +13 +16 тепло 1008.5 991.9
25 км 6/0
[Ac trans Ci sp]
+14.8 +8.1 64 1007.6 991.0
В 3 25 км 4/0
[Ac trans Ci sp]
+13.9 +8.1 68 +13 +13 тепло 1007.9 991.3
В 2 25 км 6/4 1300 м
[Sc Ac trans Ci fib]
+12.6 +8.1 74 +12 +12 тепло 1008.2 991.5
20 км 1/0
[Ac trans]
+11.2 +7.7 79 1008.5 991.7
8000 м дымка 4/0
[Ac trans]
+9.4 +7.5 88 1008.6 991.7
нст 2 20 км 9/0
[Ac lent]
+8.8 +7.7 93 +7 +7 тепло 1008.6 991.7 +14.9
20 км 10/0
[Ac As]
+9.4 +8.0 91 1009.1 992.2
20 км 10/0
[Ac As]
+9.6 +8.2 91 1009.4 992.5
н/о н/о +9.8 +8.7 93 1009.5 992.6
н/о н/о +9.8 +8.9 94 1009.7 992.8
н/о н/о +9.9 +9.1 95 1009.5 992.6
н/о н/о +9.1 +8.5 96 1009.4 992.5
н/о н/о +9.1 +8.8 98 1009.6 992.7
н/о н/о +9.4 +9.2 99 1009.0 992.1
В 2 н/о н/о +10.2 +9.6 96 +9 +9 тепло 1008.8 992.0
н/о н/о +10.2 +9.7 97 1009.4 992.5
н/о н/о +10.2 +9.7 97 1009.2 992.4
нст 1 6000 м слаб. дождь 10/10 800 м
[Sc]
+10.2 +9.9 98 +10 +10 тепло 1010.0 993.1 +8.9 2
5000 м слаб. дождь 10/10 800 м
[Sc]
+10.3 +10.0 98 1010.2 993.3
12 км в посл. час дождь 10/10 800 м
[Sc]
+10.4 +10.2 99 1009.8 993.0
нст 2 8000 м слаб. дождь 10/10 800 м
[Sc]
+10.7 +10.4 98 +9 +9 тепло 1010.1 993.3
5000 м слаб. дождь 10/10 800 м
[Sc]
+11.0 +10.7 98 1010.5 993.7
12 км в посл. час дождь 10/10 900 м
[Sc]
+11.5 +11.2 98 1009.9 993.1
нст 1 12 км {дождь} 10/10 900 м
[Sc]
+11.6 +11.0 96 +11 +11 тепло 1010.0 993.2 2
5000 м слаб. дождь 10/10 800 м
[Sc]
+11.6 +11.1 97 1010.2 993.4
8000 м слаб. дождь 10/10 800 м
[Sc]
+11.6 +11.3 98 1010.1 993.3
нст 1 6000 м слаб. дождь 10/10 800 м
[Sc]
+11.1 +10.8 98 +11 +11 тепло 1010.9 994.1
8000 м слаб. дождь 10/9 800 м
[Sc]
+11.0 +10.7 98 1011.0 994.2
ЮЗ 2 15 км в посл. час дождь 10/10 800 м
[Sc]
+9.6 +9.0 96 +8 +8 тепло 1012.0 995.1
нст 1 15 км {дождь} 10/10 800 м
[Sc]
+9.2 +8.7 97 +8 +8 тепло 1011.8 994.8 +11.7 4
ЮЗ 2 15 км 10/10 900 м
[Sc]
+8.3 +7.7 96 +6 +6 тепло 1012.6 995.6
12 км слаб. дождь 10/10 900 м
[Sc]
+8.0 +7.6 97 1012.6 995.5
н/о н/о +7.7 +7.1 96 1012.3 995.2
н/о н/о +7.5 +7.2 98 1012.0 994.9
штиль 0 н/о н/о +6.9 +6.6 98 +6 +6 тепло 1011.9 994.8
н/о н/о +6.8 +6.6 99 1011.5 994.4 0.1
штиль 0 н/о н/о +6.9 +6.8 99 +6 +6 тепло 1011.4 994.3
н/о н/о +6.8 +6.5 98 1011.3 994.2
н/о н/о +6.7 +6.6 99 1010.8 993.7
н/о н/о +7.0 +7.0 100 1010.0 992.9
н/о н/о +6.9 +6.9 100 1009.8 992.7
нст 1 3000 м дымка 10/10 700 м
[Sc]
+6.8 +6.8 100 +6 +6 тепло 1009.5 992.4 +6.7 0.1
2000 м слаб. дождь 10/10 700 м
[Sc]
+7.2 +7.2 100 1009.4 992.4
3000 м слаб. дождь 10/10 700 м
[Sc]
+7.5 +7.5 100 1009.1 992.1
нст 1 3000 м слаб. дождь 10/10 700 м
[Sc]
+8.4 +8.4 100 +7 +7 тепло 1008.9 991.9
З 2 5000 м слаб. дождь 10/10 700 м
[Sc]
+8.9 +8.8 99 +7 +7 тепло 1008.6 991.7
З 2 3000 м слаб. дождь 10/10 700 м
[Sc]
+8.7 +8.4 98 +7 +7 тепло 1008.3 991.4
нст 2 3000 м слаб. дождь 10/10 700 м
[Sc]
+9.1 +9.0 99 +7 +7 тепло 1008.0 991.1 3
8000 м в посл. час дождь 10/10 800 м
[Sc]
+9.4 +9.2 99 1007.9 991.0
З 2 5000 м слаб. дождь 10/10 800 м
[Sc]
+9.0 +8.7 98 +7 +7 тепло 1008.5 991.6
З 3 10 км слаб. дождь 10/10 800 м
[Sc]
+8.9 +8.6 98 +6 +6 тепло 1009.0 992.1
З 3 15 км в посл. час дождь 10/10 800 м
[Sc]
+8.7 +8.4 98 +6 +6 тепло 1009.6 992.7
З 3 15 км в посл. час дождь 10/10 800 м
[Sc]
+8.3 +7.8 97 +5 +5 тепло 1010.3 993.3
З 3 12 км слаб. дождь 10/10 900 м
[Sc]
+7.8 +7.5 98 +5 +5 тепло 1011.0 994.0 +9.5 5
З 3 15 км в посл. час дождь 10/10 1000 м
[Sc]
+7.8 +7.2 96 +5 +5 тепло 1011.3 994.3
З 3 15 км 8/8 1200 м
[Sc]
+7.0 +5.6 91 +4 +4 по сезону 1012.4 995.3
З 3 н/о н/о +6.1 +4.9 92 +3 +3 по сезону 1013.1 995.9
З 3 н/о н/о +5.4 +4.4 93 +2 +2 по сезону 1014.0 996.8
ЮЗ 2 н/о н/о +4.9 +4.0 94 +2 +2 по сезону 1015.0 997.7
З 2 н/о н/о +3.9 +3.2 95 +1 +1 по сезону 1015.5 998.1
ЮЗ 2 н/о н/о +2.8 +2.4 97 -1 -1 по сезону 1016.0 998.6
З 1 н/о н/о +1.9 +1.6 98 -0 -0 по сезону 1016.6 999.1
н/о н/о +1.6 +1.6 100 1017.1 999.6
н/о н/о +1.2 +1.2 100 1017.8 1000.2
штиль 0 н/о н/о +0.3 +0.3 100 -1 -1 по сезону 1018.4 1000.8
нст 1 1500 м дымка {дождь} 10/10 180 м
[St]
+0.9 +0.9 100 -1 -1 по сезону 1018.9 1001.3 +0.2
500 м туман 10/10 180 м
[St]
+2.7 +2.7 100 1020.0 1002.5
нст 1 600 м туман 10/10 180 м
[St]
+3.5 +3.5 100 +2 +2 по сезону 1020.1 1002.6
1500 м в посл. час туман 10/10 180 м
[St]
+4.2 +3.8 97 1019.6 1002.2
8000 м дымка 5/4 400 м
[Sc Ci fib]
+6.2 +4.4 88 1019.1 1001.8
штиль 0 12 км {туман} 1/1 800 м
[Cu med, cong Ci fib]
+9.6 +5.6 76 +9 +12 тепло 1018.0 1000.9
В 2 15 км 3/1 800 м
[Cu med, cong Ci sp]
+10.4 +4.6 67 +9 +11 тепло 1017.1 1000.1
В 2 15 км 6/4 900 м
[Sc Ci sp]
+9.3 +3.9 69 +8 +8 тепло 1017.0 999.9
В 2 15 км 8/3 1000 м
[Sc Cs]
+8.2 +4.2 76 +6 +6 тепло 1016.6 999.5
15 км 6/0
[Ac lent Ci fib]
+6.8 +4.1 83 1016.8 999.6
15 км 6/0
[Ac lent Ci fib]
+5.7 +4.2 90 1017.0 999.7
нст 1 10 км 8/0
[Ci fib]
+4.7 +3.8 94 +3 +3 по сезону 1017.1 999.8 +10.6
В 3 10 км 8/0
[Ci fib]
+6.7 +5.0 89 +4 +4 по сезону 1017.1 999.9
В 3 10 км 8/5 1200 м
[Sc Ac trans]
+7.4 +5.0 85 +5 +5 тепло 1016.4 999.2
В 2 н/о н/о +7.8 +5.1 83 +6 +6 тепло 1016.6 999.5
В 2 н/о н/о +7.6 +5.1 84 +6 +6 тепло 1016.3 999.2
н/о н/о +6.8 +5.1 89 1016.5 999.3
н/о н/о +6.9 +5.0 88 1015.8 998.6
СВ 2 н/о н/о +6.5 +4.8 89 +4 +4 по сезону 1015.3 998.1
СВ 2 н/о н/о +5.9 +4.5 91 +3 +3 по сезону 1015.0 997.8
н/о н/о +5.7 +4.3 91 1014.6 997.4
н/о н/о +5.7 +4.5 92 1013.8 996.6
штиль 0 н/о н/о +4.5 +3.8 95 +3 +3 по сезону 1014.1 996.8
нст 1 8000 м дымка 10/0
[Ac trans Cs]
+4.6 +4.2 97 +3 +3 по сезону 1013.9 996.6 +4.4
8000 м дымка 10/0
[Ac As Cs]
+4.8 +4.5 98 1013.4 996.1
8000 м дымка 10/0
[Ac As]
+6.4 +5.5 94 1013.0 995.8
нст 1 8000 м дымка 10/0
[Ac As]
+8.4 +5.9 84 +8 +8 тепло 1012.6 995.6
8000 м дымка 10/6 900 м
[Sc Ac As]
+8.3 +5.9 85 1012.0 995.0
8000 м слаб. дождь 10/0
[Ac As]
+9.4 +7.4 87 1010.5 993.6
В 3 7000 м слаб. дождь 10/5 1000 м
[Sc Ac As]
+10.7 +7.0 78 +9 +9 тепло 1009.7 992.9 0.4
5000 м дождь 10/3 800 м
[Sc As op]
+9.6 +8.0 90 1009.8 992.9
В 2 5000 м слаб. дождь 10/10 800 м
[Sc]
+9.5 +8.9 96 +8 +8 тепло 1008.3 991.4
В 2 8000 м слаб. дождь 10/10 800 м
[Sc]
+9.2 +8.7 97 +7 +7 тепло 1007.3 990.4
5000 м слаб. дождь 10/10 700 м
[Sc]
+9.2 +8.9 98 1007.4 990.5
5000 м слаб. дождь 10/10 700 м
[Sc]
+9.3 +9.2 99 1007.1 990.2
нст 1 8000 м в посл. час дождь 10/5 800 м
[Sc Ac As]
+9.3 +9.2 99 +9 +9 тепло 1006.5 989.6 +10.7 8
8000 м дымка 10/5 800 м
[Sc Ac As]
+9.2 +8.9 98 1006.1 989.2
СВ 2 8000 м дымка 10/10 800 м
[Sc]
+11.6 +10.5 93 +10 +10 тепло 1004.5 987.8
н/о н/о +10.5 +9.4 93 1005.3 988.5
В 3 н/о н/о +12.3 +10.9 91 +11 +11 тепло 1004.8 988.2
В 3 н/о н/о +13.0 +11.1 88 +12 +12 тепло 1004.8 988.2
н/о н/о +13.3 +11.2 87 1004.2 987.6
н/о н/о +12.7 +11.4 92 1003.5 986.9
штиль 0 н/о н/о +11.8 +11.3 97 +11 +11 тепло 1002.7 986.1
В 3 н/о н/о +13.9 +11.6 86 +13 +13 тепло 1001.9 985.4
н/о н/о +13.7 +11.2 85 1002.2 985.7
н/о н/о +13.9 +11.4 85 1001.5 985.0
В 3 12 км слаб. дождь 10/10 700 м
[Sc]
+13.8 +12.2 90 +13 +13 тепло 1002.6 986.1 +9.1 1
В 4 12 км слаб. дождь 10/4 800 м
[Sc Ac As]
+13.6 +12.0 90 +12 +12 тепло 1001.7 985.2
В 4 15 км в посл. час дождь 10/4 800 м
[Sc Ac As]
+13.7 +11.8 88 +12 +12 тепло 1001.4 984.9
нст 2 18 км {дождь} 9/4 800 м
[Sc Ac As]
+14.4 +11.7 84 +14 +15 тепло 1002.2 985.7
В 4 20 км 6/3 900 м
[Cu med, cong Ac As]
+16.5 +12.1 75 +16 +17 тепло 1001.6 985.3
В 5 20 км 6/3 900 м
[Cu med, cong Ac lent Ci fib]
+16.4 +11.8 74 +15 +16 тепло 1000.3 984.0
В 5 20 км {дождь} 10/10 800 м
[Cu Sc]
+16.2 +11.6 74 +15 +15 тепло 999.8 983.5 0.3
В 4 20 км 9/9 800 м
[Cu Sc]
+16.0 +11.8 76 +15 +15 тепло 999.2 982.9
В 4 15 км 10/10 800 м
[Cu Sc]
+15.7 +12.1 79 +15 +15 тепло 999.6 983.2
нст 2 10 км слаб. дождь 10/5 900 м
[Cu med, cong As op]
+14.3 +13.2 93 +14 +14 тепло 1000.1 983.7
ЮЗ 2 10 км слаб. дождь 10/5 900 м
[Sc As op]
+13.3 +12.5 95 +12 +12 тепло 1000.2 983.7
ЮЗ 4 10 км в посл. час дождь 10/10 700 м
[Sc]
+10.7 +10.1 96 +8 +8 тепло 1002.3 985.6
ЮЗ 3 10 км {дождь} 10/10 600 м
[Sc]
+7.5 +6.8 95 +4 +4 по сезону 1003.5 986.6 +16.6 3
ЮЗ 3 10 км слаб. дождь 10/10 600 м
[Sc]
+6.6 +5.8 95 +3 +3 по сезону 1004.9 987.9
ЮЗ 3 н/о н/о +5.4 +4.7 95 +2 +2 по сезону 1007.6 990.5
н/о н/о +5.3 +4.3 93 1009.2 992.0
н/о н/о +5.2 +4.2 93 1010.1 992.9
н/о н/о +4.8 +3.9 94 1010.4 993.2
З 2 н/о н/о +4.4 +3.7 95 +1 +1 по сезону 1010.8 993.5
нст 1 10 км 10/10 480 м
[St]
+4.2 +3.6 96 +3 +3 по сезону 1012.4 995.1 +4.0 2.4
нст 1 12 км 10/10 600 м
[St]
+5.8 +4.8 93 +5 +5 тепло 1013.4 996.2
20 км 9/9 800 м
[Sc]
+6.0 +4.6 91 1013.4 996.2
30 км 5/0
[Ac trans Ci sp]
+7.9 +5.4 84 1013.0 995.9
нст 1 30 км 6/0
[Ci sp]
+9.8 +6.2 78 +9 +12 тепло 1012.8 995.8
Местоположение метеостанции Дудинце (Словакия): широта 48.17 долгота 18.87 высота над уровнем моря 140 м.
В архиве по умолчанию представлена погода в Дудинце за последнюю неделю. Архивные данные за месяц целиком и за предыдущие месяцы, начиная с января 2011 года, Вы можете получить, выбрав интересующий диапазон дат из раскрывающегося списка и нажав кнопку "Найти!".
*Определитесь, кто Вы:
Внимание! Время в таблицах - всемирное. Для получения местного времени необходимо прибавить поправку, которая равна 1 ч.
Смотрите также архив погоды в соседних городах и на ближайших метеорологических станциях:
Партнеры нашего сайта:      
Пояснения к столбцам:
  • Ветер - указаны скорость ветра в м/с - средняя за 10 мин, порывы в срок и между сроками (в фигурных скобках) и направление, откуда дует ветер: С - северный,
  • СВ - северо-восточный, В - восточный, ЮВ - юго-восточный, Ю - южный, ЮЗ - юго-западный, З - западный, СЗ - северо-западный.
  • Видимость - горизонтальная дальность видимости в метрах или километрах. При видимости от 1 до 10 км при отсутствии осадков обычно наблюдается дымка, при ухудшении видимости до 1 км и менее - туман. В сухую погоду видимость может ухудшаться дымом, пылью или мглою.
  • Явления - указаны атмосферные явления, наблюдавшиеся в срок или в последний час перед сроком; фигурными скобками обозначены явления, наблюдавшиеся между сроками (за 1-3 часа до срока); квадратными скобками обозначены град или гололедные отложения с указанием их диаметра в мм.
  • Облачность - указаны через наклонную черту общая и нижняя облачность в баллах и высота нижней границы облаков в метрах; квадратными скобками обозначены формы облаков: Ci - перистые, Cs - перисто-слоистые, Cc - перисто-кучевые, Ac - высококучевые, As - высокослоистые, Sc - слоисто-кучевые, Ns - слоисто-дождевые, Cu - кучевые, Cb - кучево-дождевые. Подробнее классификацию облаков см. в Атласе облаков (PDF).
  • T - Температура воздуха - температура, измеренная на высоте 2 м над землей.
  • Td - Температура точки росы - температура, при понижении до которой содержащийся в воздухе водяной пар достигнет насыщения.
  • f - Относительная влажность воздуха - влажноcть воздуха, измеренная на высоте 2 м над землей.
  • Te - Эффективная температура - температура, которую ощущает одетый по сезону человек в тени. Характеристика душности погоды. При расчете учитывается влияние влажности воздуха и скорости ветра на теплоощущения человека.
  • Tes - Эффективная температура на солнце - температура, которую ощущает человек, с поправкой на солнечный нагрев. Характеристика знойности погоды. Зависит от высоты солнца над горизонтом, облачности и скорости ветра. Ночью, в пасмурную погоду, а также при ветре 12 м/с и более поправка равна нулю.
  • P - Атмосферное давление - приведенное к уровню моря атмосферное давление.
  • Po - Атмосферное давление - измеренное на уровне метеостанции атмосферное давление.
  • Tmin - Минимальная температура - минимум температуры воздуха на высоте 2 м над землей.
  • Tmax - Максимальная температура - максимум температуры воздуха на высоте 2 м над землей.
  • R - Количество осадков - Количество выпавших осадков за период времени, мм. При наведении курсора мыши на число - период времени, за который выпало указанное количество осадков.
  • R24 - Количество осадков - Количество выпавших осадков за 24 часа, мм.
  • S - Снежный покров - Высота снежного покрова, см. При наведении курсора мыши на число - состояние снежного покрова и степень покрытия местности в баллах.